Theta_e
319 320 321 325 328 325 323 323 322 322 322 321 320 321 321 321 322 326 326 333 333 339 343 342 342 340 341 340 335 333 335 338 340 339 340 339 337 335 333 330 332 331 330 326 323 321 320 323 329
320 319 323 325 325 323 322 321 321 321 320 320 321 321 321 321 323 325 328 331 333 338 342 343 342 341 339 341 336 332 332 336 339 338 338 338 339 336 334 331 331 331 329 326 322 319 319 317 325
319 317 326 324 322 320 321 321 320 319 320 320 321 321 321 322 323 323 327 332 335 336 342 343 342 342 338 340 336 334 333 337 338 337 338 338 336 334 332 331 330 329 328 324 319 315 309 311 325
321 322 322 323 320 320 319 319 319 319 320 320 320 321 321 322 325 326 328 333 335 336 341 344 342 342 340 339 337 336 335 336 337 337 338 338 334 331 330 329 328 327 326 323 318 309 309 312 325
319 322 323 321 320 319 318 319 319 319 319 318 319 319 321 321 327 328 332 334 335 337 341 343 341 341 340 338 337 338 336 335 336 337 338 335 332 330 326 324 326 326 325 323 316 307 304 308 314
322 320 321 322 321 319 319 318 319 319 319 317 317 318 320 319 324 328 332 333 335 337 340 342 341 340 341 340 338 338 337 335 335 336 337 334 332 329 327 327 325 325 323 321 315 306 302 304 309
320 318 318 319 320 320 319 318 319 318 317 318 318 318 319 318 318 326 327 332 335 337 339 339 341 340 340 341 340 339 337 335 335 335 337 335 332 329 328 328 327 325 322 320 317 314 304 301 303
319 318 317 317 318 319 319 318 318 318 318 316 317 318 319 315 315 323 325 327 334 336 337 337 339 342 341 341 338 338 338 336 335 335 337 334 331 329 328 328 326 325 324 323 323 318 312 303 300
317 317 317 317 317 318 318 318 316 316 317 316 315 316 313 312 314 319 323 322 325 327 332 336 337 339 340 341 338 337 337 336 335 335 336 334 331 330 329 328 327 325 324 323 323 322 319 312 306
318 318 317 315 316 317 318 318 318 317 317 316 315 314 312 313 314 316 317 318 317 316 316 318 333 337 336 338 339 338 338 337 337 336 335 333 332 332 329 329 328 326 324 323 322 321 320 317 313
318 317 315 314 315 317 318 317 317 317 317 317 316 316 312 312 312 313 313 313 312 312 313 313 316 332 334 337 337 337 337 336 335 335 335 333 332 330 330 328 327 325 325 323 322 321 320 319 315
317 316 315 316 315 316 317 317 317 316 317 313 313 312 312 312 311 311 311 312 312 313 314 314 314 318 332 333 336 336 335 335 336 334 333 332 331 330 328 327 326 325 325 322 321 320 319 318 316
316 317 316 317 316 316 316 316 316 316 313 311 310 310 311 310 310 310 310 311 312 313 314 315 317 317 331 334 334 333 332 331 331 331 331 330 330 328 326 326 324 324 322 320 320 318 318 318 316
316 316 316 316 316 315 315 316 314 314 312 311 310 310 309 307 307 309 309 310 312 311 313 317 314 326 331 332 331 329 329 328 329 328 328 328 327 326 325 323 322 321 320 320 318 316 316 317 316
315 316 318 318 317 316 315 316 315 313 312 311 310 309 307 306 306 306 307 310 308 309 312 317 322 325 328 327 327 325 325 325 325 324 324 324 323 321 321 319 320 319 319 318 317 315 315 313 313
317 317 321 319 316 315 315 321 316 312 312 313 311 310 308 306 305 305 307 307 304 307 310 315 317 321 321 321 321 321 320 321 320 319 319 319 319 319 317 316 313 313 312 310 310 310 311 311 310
318 321 321 321 316 315 316 321 314 311 312 313 312 310 308 306 305 304 306 303 302 304 306 308 310 312 313 315 315 313 311 309 307 309 309 309 310 310 311 309 306 307 305 305 308 309 309 307 305
321 322 320 320 318 315 317 318 315 312 312 313 313 310 308 306 304 302 305 301 301 302 303 305 304 304 305 309 307 302 304 302 301 299 300 301 300 300 300 299 298 298 297 296 298 303 302 300 298
320 320 321 320 317 316 318 319 319 314 312 314 312 310 308 306 302 302 304 301 300 300 301 302 301 300 300 299 298 297 295 294 293 292 292 292 292 293 293 292 293 292 291 291 292 293 295 294 296
319 319 320 320 318 314 317 319 318 317 313 313 312 310 307 304 303 302 303 300 299 299 299 300 300 301 299 298 296 295 294 292 291 290 290 290 290 290 290 290 290 290 290 289 289 290 291 293 292
318 319 319 319 318 315 316 319 319 318 313 309 308 308 305 304 302 302 303 300 299 298 298 299 298 297 296 295 293 292 292 292 291 290 289 289 288 288 288 288 288 288 288 288 288 288 289 290 290
318 318 317 317 317 320 318 323 322 321 311 308 307 305 304 303 301 300 300 300 298 297 296 296 296 295 295 295 295 294 293 291 290 289 289 288 288 287 287 286 287 286 286 286 286 287 287 288 289
318 315 315 316 318 320 321 321 321 318 314 311 307 305 303 301 300 299 298 296 295 295 295 293 293 292 293 293 292 292 291 290 290 289 289 288 287 286 285 285 285 285 285 285 285 286 286 286 287
314 315 315 315 318 324 322 323 324 320 316 314 308 305 302 300 298 296 294 293 293 292 292 292 292 291 291 291 291 291 291 290 290 290 289 288 287 286 285 285 284 284 284 284 285 285 285 285 285
315 317 323 326 323 324 318 324 323 318 312 313 307 304 301 299 297 294 292 292 292 292 291 291 291 290 291 291 290 290 290 290 289 289 288 288 286 285 284 284 284 284 284 284 284 284 284 284 284
316 318 326 332 329 325 312 319 321 310 309 309 306 304 301 298 296 293 292 291 291 291 291 291 290 290 290 289 289 289 289 289 288 288 287 286 285 284 284 283 283 283 282 282 282 282 282 283 282
318 320 319 321 313 320 320 317 312 308 307 307 305 303 301 297 295 293 292 291 291 291 291 290 290 289 289 289 289 288 288 288 288 287 285 284 283 282 282 282 282 282 282 281 281 281 281 280 280
317 316 318 322 328 329 324 322 321 311 309 307 305 303 301 298 295 294 292 291 291 291 290 290 290 289 289 288 288 288 288 287 286 285 284 283 283 283 282 282 281 281 280 280 279 279 279 279 279
314 316 317 319 321 326 327 322 316 316 311 307 306 303 301 298 296 294 292 291 290 290 290 290 289 289 288 288 288 287 287 285 284 284 283 283 282 282 281 280 279 279 278 278 278 278 277 277 277
316 317 317 321 321 319 321 323 310 311 312 308 306 303 301 298 296 294 292 291 291 290 290 289 289 289 288 288 288 287 285 284 284 283 283 282 281 279 279 278 278 278 277 277 276 276 276 276 276
Wind_Speed
7 6 4 4 5 4 4 4 2 3 2 6 3 6 8 10 9 4 3 5 5 15 17 18 16 14 13 10 12 12 12 12 12 13 13 12 13 13 13 12 12 12 13 14 13 13 11 10 9
4 4 4 2 5 6 5 5 4 6 5 3 1 1 1 11 10 7 6 3 5 14 16 16 15 13 13 11 12 12 11 11 11 11 12 13 14 12 12 11 11 12 13 13 13 12 12 10 10
4 3 3 3 3 3 4 3 6 5 3 1 1 3 3 7 10 5 4 4 7 12 14 15 16 14 13 12 12 12 11 11 10 10 12 13 11 11 10 11 12 12 13 14 13 12 11 11 11
4 4 4 6 3 3 3 4 4 5 3 1 2 7 7 9 5 5 5 4 7 9 13 14 17 13 13 13 12 11 10 10 10 10 11 13 10 10 11 11 12 12 12 13 13 12 11 10 10
3 3 4 3 3 4 3 4 2 3 4 4 1 4 5 8 8 8 7 5 6 8 10 9 18 13 11 12 11 10 10 8 8 12 13 11 9 10 12 12 12 12 12 12 13 11 10 10 9
3 3 5 6 6 5 3 3 3 3 2 6 3 4 7 7 8 8 6 6 6 7 8 9 14 12 10 10 9 9 9 9 9 10 12 10 9 11 13 15 15 12 12 13 14 12 10 9 8
4 4 5 3 5 6 5 3 6 5 4 4 2 4 7 11 7 5 5 5 6 5 6 9 10 11 12 10 9 8 9 8 8 9 10 9 9 10 11 13 15 15 14 14 15 15 12 10 8
3 3 3 4 6 6 6 5 1 4 5 3 2 4 7 8 6 3 4 5 6 5 5 7 9 9 10 8 10 8 8 8 8 9 10 9 9 9 10 10 12 13 15 16 17 15 13 10 9
2 4 5 3 5 5 5 7 4 1 3 2 2 4 5 5 4 2 4 5 6 6 4 4 6 8 8 8 10 9 8 8 9 10 11 11 9 9 8 4 7 7 8 11 14 16 15 12 12
3 4 1 1 2 4 7 4 5 5 8 7 5 6 6 4 4 1 1 2 1 1 2 1 4 6 9 8 6 10 9 10 10 11 14 12 10 8 6 5 5 5 7 7 9 13 15 11 9
1 5 3 4 2 2 5 5 3 7 9 3 3 5 5 4 4 3 3 3 4 4 2 3 3 4 10 8 9 8 7 6 6 8 12 11 10 8 7 5 4 5 5 6 7 8 8 11 9
6 3 2 1 2 3 6 3 6 7 2 5 5 4 3 4 4 5 5 6 6 6 5 5 4 5 10 10 8 6 6 6 6 6 6 7 7 7 7 5 4 3 4 5 6 8 9 9 9
7 3 3 4 4 6 3 9 9 7 4 3 4 4 4 4 4 5 6 6 7 8 8 6 4 7 10 11 12 10 7 6 8 8 8 8 8 8 7 5 4 5 6 5 5 7 5 9 10
4 4 6 6 10 8 8 10 2 5 6 5 5 4 4 4 5 5 7 8 8 8 9 7 3 10 17 19 17 13 12 13 13 12 12 9 8 7 8 8 8 8 7 6 5 4 5 6 9
3 7 10 12 13 9 8 10 12 9 9 8 6 5 3 4 5 7 8 9 9 9 8 6 10 17 22 25 22 20 19 17 18 18 17 15 14 13 13 14 12 11 9 7 7 8 8 8 10
5 5 9 6 8 4 9 11 9 10 10 9 6 5 3 3 5 6 7 7 8 7 8 10 16 24 28 30 30 29 27 25 25 24 23 22 20 20 19 18 15 13 13 12 12 12 10 11 12
9 11 10 6 11 6 12 6 9 10 11 10 8 6 4 4 3 5 6 7 7 8 9 14 20 27 31 31 30 28 27 25 24 25 24 23 21 19 18 18 15 14 14 14 12 11 13 14 16
11 14 11 12 7 10 11 15 10 10 13 13 10 8 7 5 3 4 6 8 8 9 11 16 22 27 30 33 34 32 31 29 26 24 23 21 20 18 18 18 17 17 18 19 18 15 16 17 21
13 13 15 11 3 6 14 16 14 14 12 13 12 10 8 6 5 5 7 9 11 11 13 18 23 24 28 30 31 29 26 25 25 25 23 21 20 19 19 20 19 20 23 22 21 18 18 20 26
17 16 16 14 5 5 15 19 17 14 16 15 13 11 10 8 8 8 9 10 11 13 15 19 20 22 21 21 20 20 21 25 24 24 24 22 23 23 22 22 23 21 20 22 22 21 18 16 23
16 18 15 17 4 11 14 22 23 21 11 7 9 9 9 11 10 9 12 13 12 12 14 17 17 16 18 21 24 27 25 23 21 20 23 21 21 22 22 21 20 21 21 20 20 20 19 15 17
17 16 16 15 8 10 3 12 10 12 14 14 13 12 12 11 11 11 13 14 14 14 15 16 18 18 17 16 18 18 20 21 19 19 19 20 20 21 20 19 18 18 17 18 17 16 16 15 15
10 2 8 11 13 16 19 9 7 4 13 19 17 15 14 13 13 13 15 16 15 15 16 17 19 20 21 21 21 23 23 21 19 17 17 16 17 19 19 19 18 17 17 16 17 17 17 15 13
10 7 3 3 7 12 16 16 13 11 11 14 17 17 17 16 14 16 16 16 16 16 18 19 20 21 22 22 21 22 22 19 17 14 14 13 13 14 17 16 16 16 15 14 14 14 14 14 13
13 8 4 5 6 9 2 13 16 6 5 11 21 20 20 19 17 15 18 18 17 17 17 18 20 21 20 21 21 21 21 19 17 14 13 11 11 11 12 12 13 13 13 14 14 14 14 15 15
20 18 8 6 7 5 1 9 6 5 5 6 17 19 19 19 16 16 20 20 20 20 19 19 20 21 19 20 20 18 17 16 14 13 12 11 8 8 9 10 12 13 16 18 18 16 17 15 17
12 16 9 2 1 4 7 11 3 6 7 12 18 19 19 20 18 18 21 20 20 19 19 19 20 20 18 18 17 16 15 14 14 11 9 8 8 8 10 13 13 15 16 17 18 18 18 19 18
11 11 6 4 6 7 8 12 9 10 14 15 20 21 20 19 18 17 22 23 22 20 20 19 19 19 18 17 15 14 14 12 11 10 10 8 8 9 11 12 13 13 15 16 17 18 17 18 18
8 13 9 6 8 3 4 5 4 10 18 21 20 21 21 20 19 17 22 23 22 22 21 20 20 19 17 16 15 15 13 12 10 9 8 6 6 8 9 9 11 12 14 16 18 18 17 18 19
21 14 20 6 6 6 3 7 4 4 12 16 18 18 18 19 18 18 23 24 23 23 23 22 21 20 19 17 17 15 13 10 8 7 5 4 4 5 6 8 11 13 14 15 17 18 19 19 21
Wind_Direction
339 317 300 250 230 240 135 107 53 104 124 44 39 1 42 34 19 42 114 119 121 157 164 164 172 174 160 167 156 148 139 132 135 137 130 114 102 93 80 66 70 68 62 58 55 57 67 74 77
321 311 243 280 251 189 121 121 136 65 59 42 88 202 45 78 56 97 122 112 138 162 166 169 176 175 171 169 165 156 151 143 147 134 130 118 111 91 77 64 69 73 66 62 59 59 65 74 74
313 290 264 258 287 82 131 150 102 93 72 16 135 356 17 42 52 61 49 72 131 160 168 177 177 180 175 174 170 163 157 151 149 140 136 127 108 89 73 64 74 71 64 59 56 56 62 72 73
300 205 222 250 139 74 88 126 107 144 115 62 349 104 101 45 37 23 84 75 137 157 169 180 181 190 189 177 178 173 168 162 157 150 143 127 106 81 67 68 72 70 64 58 57 56 62 72 72
255 252 246 223 140 129 123 94 139 155 113 120 215 118 83 54 66 64 101 90 132 149 167 180 182 186 197 191 189 184 175 166 160 153 145 134 109 84 72 70 80 75 66 60 57 56 60 68 73
237 282 239 210 168 154 157 125 185 185 125 118 194 151 80 77 62 63 84 85 116 142 163 172 185 190 203 199 195 185 179 170 160 155 148 136 112 86 80 66 63 70 63 54 49 48 47 54 65
295 268 297 297 170 189 178 143 209 186 163 121 40 189 116 68 45 64 80 96 111 129 155 177 188 194 202 201 206 193 186 179 173 166 160 147 122 97 80 67 58 57 54 48 45 43 43 44 47
289 265 234 227 200 208 149 176 146 239 122 101 346 187 162 41 11 75 93 103 111 118 139 171 187 197 206 201 192 188 191 183 175 174 172 152 138 119 84 70 60 50 42 39 36 34 37 38 37
300 244 226 199 201 209 155 195 159 95 250 123 59 32 32 5 9 125 148 118 116 100 109 165 197 212 209 205 196 201 191 189 184 184 180 171 151 130 103 113 71 62 42 36 31 28 26 31 22
259 258 221 1 201 218 169 228 170 220 199 183 148 103 29 22 35 89 100 145 116 56 12 74 201 210 208 214 205 199 195 192 190 180 180 177 155 154 162 108 88 69 53 31 30 34 29 30 21
179 269 104 180 199 276 204 223 213 247 244 327 247 98 46 54 57 68 56 38 358 339 336 314 261 218 204 201 206 203 200 203 198 191 186 180 166 163 154 129 102 75 60 51 39 45 28 14 21
251 240 245 144 187 209 225 275 235 242 60 60 56 64 81 72 54 36 25 11 1 356 344 322 264 207 200 190 194 163 137 150 109 115 136 163 148 150 140 143 135 102 84 65 47 37 40 29 20
242 217 217 207 202 230 275 247 260 222 146 118 102 98 85 65 36 34 18 16 6 2 352 340 283 184 181 176 170 156 157 133 127 123 135 127 122 125 129 129 120 107 92 68 56 57 45 18 355
14 277 251 222 226 227 232 247 203 180 157 158 153 122 88 56 21 19 18 14 13 10 4 6 104 161 167 152 146 134 123 113 113 115 115 121 123 122 119 116 101 89 75 60 48 39 23 2 340
283 277 257 239 230 234 216 239 229 139 166 164 162 148 108 66 44 31 15 17 17 22 33 92 146 152 147 134 129 121 114 112 104 102 103 111 112 111 104 98 94 83 78 65 46 24 11 356 345
254 255 262 106 170 176 200 263 154 167 181 188 182 171 156 81 50 38 30 33 32 43 59 106 127 133 128 123 117 112 110 107 103 100 99 99 98 102 101 92 80 76 63 48 36 24 10 4 354
214 263 232 256 199 155 203 249 160 182 199 204 203 194 181 151 92 53 50 52 58 69 85 107 125 125 122 120 118 114 107 98 89 90 89 89 89 87 88 80 71 65 56 47 35 26 20 11 355
249 226 252 251 174 217 212 249 164 191 211 216 205 198 194 180 106 81 79 75 85 92 103 118 120 122 119 118 114 106 101 96 92 85 83 80 77 74 73 66 61 61 61 49 45 38 33 18 355
281 283 262 257 155 259 240 252 249 195 211 216 210 205 196 176 140 121 106 95 96 98 111 117 116 113 111 109 105 99 92 89 81 75 71 71 69 68 72 72 65 56 54 48 41 40 26 20 10
247 259 258 260 233 243 265 263 256 217 217 220 217 208 193 170 159 139 128 113 104 107 114 120 118 121 112 106 104 103 102 94 91 84 77 72 68 67 61 57 55 54 50 45 42 38 31 27 20
236 243 254 260 266 243 274 269 255 239 212 222 229 210 185 181 163 152 146 128 121 115 114 117 121 120 115 113 111 105 100 94 89 82 78 73 75 73 70 65 59 50 45 40 34 32 29 20 23
246 236 248 262 258 262 171 286 281 199 210 216 204 193 184 169 160 152 147 137 128 119 118 115 114 111 111 115 112 109 102 96 89 83 78 69 63 63 62 60 56 55 52 45 35 25 23 20 17
249 85 220 238 255 274 256 264 276 170 215 211 200 190 181 171 163 153 143 136 129 127 123 119 114 108 107 110 110 108 105 104 103 97 89 79 68 62 55 51 47 48 42 34 29 25 18 15 7
129 111 110 235 260 256 240 234 265 205 230 200 188 185 172 167 160 147 140 136 128 124 122 119 115 109 108 108 107 106 106 106 100 93 82 72 63 54 52 49 44 34 32 28 23 19 13 360 354
199 179 232 238 209 255 235 221 251 180 185 190 182 181 174 166 160 154 152 145 140 134 129 124 118 113 110 108 106 106 105 104 99 90 80 70 60 50 46 48 42 36 26 18 15 14 5 354 343
201 196 198 237 215 249 67 232 235 42 95 176 175 176 173 170 166 164 161 154 149 148 144 137 129 122 119 116 112 108 105 100 97 97 99 93 75 60 45 44 37 30 13 8 358 357 350 334 329
190 222 231 18 180 283 219 241 197 164 168 168 168 173 177 175 171 169 165 163 158 155 151 144 136 129 124 119 115 111 110 111 111 103 95 87 82 61 29 20 17 9 9 352 348 343 341 326 326
208 156 166 196 215 233 244 251 232 204 192 180 179 182 179 176 174 173 172 169 166 161 155 151 146 139 134 128 124 121 118 114 112 110 98 78 51 32 18 1 357 359 358 344 339 335 326 323 320
179 202 217 207 227 248 273 239 141 203 190 187 186 185 180 178 177 174 174 175 170 167 164 159 153 146 142 140 136 131 129 127 121 103 83 63 32 17 10 350 345 351 351 337 334 328 323 319 318
219 209 205 206 188 231 288 257 122 97 178 185 188 183 181 181 177 175 175 175 174 172 170 167 162 157 154 149 146 145 143 133 115 99 82 56 25 3 351 343 341 346 339 333 329 325 323 321 318